Content
SEND FEEDBACK

Daily
Averages
Monthly
Summary
United States of America

PYGA BEACH, GUAM


Home > North America > United States > Guam
Elevation: 6 meters     Latitude: 13 17N     Longitude: 144 39E

WEATHER
 
SELECT A DAY
Number of Records: 342,764;   Date Range: 1/1/95 - 9/22/14
 
SHARE

PRINT THIS DATA

[ ← Previous Day ]
WEATHER ALMANAC - 28 JANUARY, 2013
[ Next Day → ]
[ °F ]   °C
Weather ElementAverageHighLow
Temperature25.9 °C28.1 °C (1:55 pm)24.1 °C (6:55 am)
Dewpoint19.6 °C21 °C (12:55 pm)17.6 °C (6:55 am)
Humidity68.3 %74 % (11:09 pm)61 % (2:55 pm)
Barometer1012.2 hPa1013.9 hPa (8:55 am)1010.2 hPa (2:55 pm)
Wind Speed23.7 km/h31.5 km/h (11:55 am)
Wind Gust37 km/h (10:55 am)
Weather ElementAverage
Visibility16.1 km
Wind DirectionENE (61 °)

Weather ElementTotal
Precipitation---
Cooling Degree Days7.8 (Base 18.3)
Growing Degree Days16.1 (Base 10)
Averaged from 31 records on 28 January, 2013
WEATHER CONDITIONS BREAKOUT
WIND DIRECTION BREAKOUT
WEATHER BY HOUR - 28 JANUARY, 2013
[ °F ]   °C
Local TimeTemperatureDewpointHumidityBarometerVisibilityWind DirectionWind SpeedGust SpeedPrecipitationEventsConditions
1:55 AM24.6 °C18.5 °C69 %1012.2 hPa16.1 kmENE (60°)24.1 km/hClear
2:55 AM24.5 °C18.9 °C71 %1012.2 hPa16.1 kmENE (60°)24.1 km/hPartly Cloudy
3:55 AM24.5 °C19.4 °C73 %1011.9 hPa16.1 kmNE (50°)22.2 km/hPartly Cloudy
4:55 AM24.5 °C18.7 °C70 %1012.2 hPa16.1 kmNE (50°)22.2 km/hPartly Cloudy
5:55 AM24.4 °C19.1 °C72 %1012.5 hPa16.1 kmENE (70°)20.4 km/hPartly Cloudy
6:55 AM24.1 °C17.6 °C67 %1013.2 hPa16.1 kmENE (60°)20.4 km/hPartly Cloudy
7:55 AM24.9 °C18 °C65 %1013.2 hPa16.1 kmENE (60°)25.9 km/hClear
8:55 AM26 °C19.8 °C68 %1013.9 hPa16.1 kmENE (70°)25.9 km/hClear
9:55 AM27.2 °C20.7 °C67 %1013.5 hPa16.1 kmENE (70°)24.1 km/hClear
10:55 AM27.4 °C20.9 °C67 %1013.2 hPa16.1 kmENE (70°)24.1 km/h37 km/hPartly Cloudy
11:55 AM27.4 °C20.7 °C67 %1012.2 hPa16.1 kmENE (70°)31.5 km/hPartly Cloudy
12:55 PM27.3 °C21 °C68 %1011.5 hPa16.1 kmEast (80°)25.9 km/hScattered Clouds
1:07 PM28 °C21 °C66 %1011.5 hPa16.1 kmENE (70°)27.8 km/hMostly Cloudy
1:33 PM28 °C21 °C66 %1011.2 hPa16.1 kmEast (80°)27.8 km/hScattered Clouds
1:41 PM27 °C20 °C65 %1011.2 hPa16.1 kmENE (60°)24.1 km/hMostly Cloudy
1:50 PM28 °C21 °C66 %1010.8 hPa16.1 kmEast (80°)24.1 km/h33.3 km/hScattered Clouds
1:55 PM28.1 °C20.6 °C64 %1010.8 hPa16.1 kmENE (70°)24.1 km/h33.3 km/hScattered Clouds
2:55 PM27.9 °C19.7 °C61 %1010.2 hPa16.1 kmEast (80°)24.1 km/h35.2 km/hPartly Cloudy
3:55 PM27.2 °C19.5 °C63 %1010.5 hPa16.1 kmNE (50°)24.1 km/hScattered Clouds
4:55 PM26.9 °C19.9 °C65 %1011.2 hPa16.1 kmENE (60°)22.2 km/hScattered Clouds
5:55 PM25.5 °C19.1 °C68 %1011.5 hPa16.1 kmNE (50°)20.4 km/hScattered Clouds
6:55 PM24.7 °C18.5 °C68 %1011.9 hPa16.1 kmENE (60°)24.1 km/hPartly Cloudy
7:55 PM24.7 °C18.2 °C67 %1012.2 hPa16.1 kmENE (60°)24.1 km/hClear
8:55 PM24.5 °C18.9 °C71 %1012.9 hPa16.1 kmENE (60°)20.4 km/hPartly Cloudy
9:55 PM25.1 °C19.1 °C69 %1013.2 hPa16.1 kmNE (40°)27.8 km/hScattered Clouds
10:55 PM25.1 °C19.8 °C72 %1013.2 hPa16.1 kmNE (50°)25.9 km/hMostly Cloudy
11:09 PM25 °C20 °C74 %1013.2 hPa16.1 kmNE (50°)20.4 km/hMostly Cloudy
11:12 PM25 °C20 °C74 %1013.2 hPa16.1 kmNE (50°)22.2 km/hMostly Cloudy
11:29 PM25 °C20 °C74 %1012.9 hPa16.1 kmNE (50°)22.2 km/hMostly Cloudy
11:40 PM25 °C19 °C69 %1012.9 hPa16.1 kmNE (50°)20.4 km/hMostly Cloudy
11:55 PM24.6 °C19.3 °C72 %1012.9 hPa16.1 kmNE (50°)16.7 km/hPartly Cloudy
Hourly data recorded from PGUA, located 0 kilometers away from Pyga Beach, Guam







STORIES FROM OUR PARTNERS